Notices

What's New in latest Release from April 7th, 2021:

- Updated Glossary, including Speed of Maximum Gust, and Total Hourly Precipitation

- Updated national and regional climate services offices contacts and prices information

- Addition of station inventory lists for 1981-2010, 1971-2000, and 1961-1990 Normals.

If you haven't already, please take our survey and provide feedback about our website: https://eccc.sondage-survey.ca/f/LanguageSelection.aspx?s=442ca660-fcf1-47c0-95a9-59707d6fd709

Hourly Data Report for April 01, 2021

CORNER BROOK
NEWFOUNDLAND
Current Station Operator: ECCC - MSC

48°56'00.000" N
57°55'00.000" W
151.80 m
8401298
71973
WKB

Download Data

Hourly Data (April 2021)
Hourly Data Report for April 1, 2021
TIME
LST
Temp Definition
°C
Dew Point Definition
°C
Rel Hum Definition
%
Precip. Amount Definition
mm

Wind Dir Definition
10's deg

Wind Spd Definition
km/h
Visibility Definition
km
Stn Press Definition
kPa
Hmdx Definition


Wind Chill Definition


Weather Definition


00:30 1.4 -4.7 64 0.0 9 2   100.14     LegendNANA
01:30 0.7 -3.7 72 0.0 4 2   100.10     LegendNANA
02:30 1.1 -3.2 73 0.0 10 6   100.07     LegendNANA
03:30 0.1 -4.5 71 0.0 9 11   100.06     LegendNANA
04:30 0.3 -4.2 72 0.0 9 7   100.07     LegendNANA
05:30 1.1 -3.1 74 0.0 10 5   100.00     LegendNANA
06:30 0.6 -3.2 76 0.0 34 2   100.01     LegendNANA
07:30 2.5 -1.7 74 0.0 6 2   100.00     LegendNANA
08:30 5.1 -0.7 66 0.0 7 12   99.93     LegendNANA
09:30 9.1 0.3 54 0.0 4 4   99.94     LegendNANA
10:30 11.3 1.1 49 0.0 29 5   99.91     LegendNANA
11:30 14.7 4.8 52 0.0 15 11   99.85     LegendNANA
12:30 15.1 4.3 48 0.0 18 8   99.84     LegendNANA
13:30 14.6 3.9 49 0.0 16 14   99.85     LegendNANA
14:30 16.3 5.3 48 0.0 16 10   99.83     LegendNANA
15:30 15.3 6.5 56 0.0 16 6   99.83     LegendNANA
16:30 14.9 6.6 57 0.0 18 8   99.85     LegendNANA
17:30 11.6 5.8 67 0.0 14 8   99.90     LegendNANA
18:30 9.6 5.7 77 0.0 13 12   99.89     LegendNANA
19:30 8.6 5.0 78 0.0 13 10   99.89     LegendNANA
20:30 8.0 4.0 76 0.0 11 7   99.90     LegendNANA
21:30 7.8 3.3 73 0.0 14 12   99.85     LegendNANA
22:30 7.7 2.9 72 0.0 15 15   99.80     LegendNANA
23:30 7.5 2.8 72 0.0 14 14   99.80     LegendNANA

Notes on Data Quality.

Legend

  • E = Estimated
  • M = Missing
  • NA = Not Available*
  • [empty] = Indicates an unobserved value
Date modified: